Regional Weather Roundup
Issued by NWS

Home | Current Version | Previous Version | Text Only | Print | Product List | Glossary On
Versions: 1 2 3 4 5 6 7 8 9 10 11 12 13 14 15 16 17 18 19 20 21 22 23 24 25 26 27 28 29 30 31 32 33 34 35 36 37 38 39 40 41 42 43 44 45 46 47 48 49 50
589
ASUS46 KPQR 231910
RWROR

OREGON REGIONAL WEATHER ROUNDUP
NATIONAL WEATHER SERVICE PORTLAND OR
1200 PM PDT THU MAY 23 2019

NOTE: "FAIR" INDICATES FEW OR NO CLOUDS BELOW 12,000 FEET WITH
NO SIGNIFICANT WEATHER AND/OR OBSTRUCTIONS TO VISIBILITY.

ORZ001>013-232000-
NORTHWEST OREGON


CITY           SKY/WX    TMP DP  RH WIND       PRES   REMARKS
ASTORIA        CLOUDY    57  52  83 W7        30.05S
TILLAMOOK      CLOUDY    59  54  82 W5        30.06S
NEWPORT        CLOUDY    54  52  94 NW9       30.08S
PORTLAND       PTSUNNY   63  51  65 CALM      30.02S
VANCOUVER WA   PTSUNNY   62  51  67 N7        30.01F
SCAPPOOSE      MOSUNNY   66  55  67 MISG      30.00F
HILLSBORO      MOSUNNY   63  53  70 VRB3      30.00F
AURORA         PTSUNNY   61  52  72 VRB3      30.03S
MCMINNVILLE    PTSUNNY   62  54  74 S6        30.01F
SALEM          CLOUDY    60  52  74 N3        30.01F
CORVALLIS      CLOUDY    61  54  77 CALM      30.03F
EUGENE         CLOUDY    61  53  75 N6        30.03S
$$

ORZ021-028-232000-
SOUTHWEST OREGON


CITY           SKY/WX    TMP DP  RH WIND       PRES   REMARKS
NORTH BEND     CLOUDY    58  53  84 N14       30.07S
BROOKINGS      SUNNY     66  55  67 NW13      29.92F
ROSEBURG       CLOUDY    64  49  57 N9        30.00F
SEXTON SUMMIT  LGT RAIN  52  49  89 VRB6      29.98S
GRANTS PASS    FAIR      66  46  48 NW10G17   29.98F
MEDFORD        MOSUNNY   65  46  50 VRB3      29.93F
$$

ORZ014>016-041-232000-
COLUMBIA GORGE


CITY           SKY/WX    TMP DP  RH WIND       PRES   REMARKS
TROUTDALE      CLOUDY    62  53  72 W5        30.01F
HOOD RIVER     SUNNY     70  52  52 CALM      29.93F
THE DALLES     SUNNY     76  50  40 NW8       29.90F
$$

ORZ029>031-041-044-049-050-061>064-502-503-505>511-232000-
EASTERN OREGON


CITY           SKY/WX    TMP DP  RH WIND       PRES   REMARKS
MADRAS         SUNNY     66  39  37 N12G23    29.97F
REDMOND        MOSUNNY   66  41  40 N17G23    29.95F
BEND           SUNNY     63  39  42 N13G20    29.96F
PRINEVILLE     PTSUNNY   64  43  45 N12G18    29.94F
KLAMATH FALLS  PTSUNNY   58  38  47 N8        29.93F
LAKEVIEW       CLOUDY    54  39  57 N12       29.93S
HERMISTON      SUNNY     73  44  35 E6        29.88F
PENDLETON      SUNNY     65  47  52 VRB5      29.90F
JOHN DAY       CLOUDY    61  39  43 N8G18     29.90S
MEACHAM        MOSUNNY   59  41  51 NW6       29.93S
LA GRANDE      SUNNY     66  40  38 N21G26    29.87F
BAKER CITY     SUNNY     67  27  22 NW20G28   29.86F
BURNS          PTSUNNY   62  37  39 N12G17    29.87F
ROME             N/A     58  39  49 NW8       29.85F
ONTARIO        SUNNY     75  37  25 NW10      29.80F
$$




USA.gov is the U.S. government's official web portal to all federal, state and local government web resources and services.